Погода в Красновидово

Россия / Московская область     55°35′02″N   35°52′25″E
В апреле 2022 года жителям России запретили посещать сайт meteo.paraplan.net по решению Генеральной прокуратуры. Аудитория сайта уменьшилась в 10 раз. Владельцы сайта не видят смысла в поддержке погодного сервера в таких условиях. Сайт будет закрыт в октябре.
темп.,
°C
ветер,
м/с
пор.,
м/с
влажн.,
%
обл.,
%
осадки,
мм/ч
давл.,
гПа
погр.,
м
3 октября, пн
пн300:00+9всв61597100 5.9 997578
03:00+12в61598100 7.6 993920
06:00+15вюв81690100 2.5 9901183
09:00+13ю3895100 6.5 990496
12:00+10ююв51194100 2.6 992784
15:00+8ююв61284100 2.9 9941314
18:00+6юв61288100 0.3 9951240
21:00+6ююв71395100 1.2 9971231
4 октября, вт
вт400:00+7ююв71692100 0.6 9981511
03:00+7ю41395100 2.4 10001429
06:00+6ююз41095100 2.9 10021156
09:00+5ю51294100 6.4 10041005
12:00+6ю51192100 2.3 10051043
15:00+7ююв5119098 2.7 10061095
18:00+7ююв51093100 0.4 10061185
21:00+5ю4894100 1.6 1007912
5 октября, ср
ср500:00+5ю3795100 0.5 10081017
03:00+5юз3694100 1.1 1009828
06:00+5юз1296100 0.4 1010436
09:00+5сз2494100 1.0 1011310
12:00+6зсз358699 0.3 1013671
15:00+7зсз3786100 0.4 1014752
18:00+6з388980 0.2 1016457
21:00+6з3893100 0.3 1016511
6 октября, чт
чт600:00+6з3893100 0.1 1016391
03:00+6ююз2798100 0.4 1016361
06:00+7юз3998100 0.4 1015420
09:00+8зюз3998100 1.1 1015403
12:00+9зюз3997100 0.7 1015443
15:00+11юз3109176 0.8 1014463
18:00+11юз4129396 0.0 1014516
21:00+11з51491100 0.0 1014590
7 октября, пт
пт700:00+10зсз5129232 0.0 1016685
03:00+9з5139552 0.0 1018608
06:00+8з4129371 0.0 1019602
09:00+8з51190100 0.0 1020702
12:00+9з41185100 0.1 10221088
15:00+11з510750 0.1 10211077
18:00+9з411830 0.0 1022583
21:00+7зюз311890 0.0 1023319